Volver al catálogo

STARLINK-3326

ActivoComunicacionesVLEO
NORAD 50844·PAYLOAD·🇺🇸 United States

Lanzado Jan 6, 2022 desde Cape Canaveral Space Force Station

Loading…

Próximos Pases (próximas 24 horas)

TLE

ActualizadoSource: CelesTrak SupGP

Época: Sep 15, 2026, 02:36 UTC

1 50844C 22001AT  26258.10881944  .00004054  00000+0  11335-3 0  2580
2 50844  53.1598  34.7808 0000398  28.3228 341.6811 15.36114810    14

Sigue STARLINK-3326 en tiempo real con AllMySat

Download on the App Store